Location: Kaarina
(60.4167°N, 22.4167°E)
Time: 17:28:43
(UTC+03:00)

Okean 2 Rocket - Pass Details

Date: 24 August 2019
Orbit: 618 x 640 km, 82.5° (Epoch: 16 September)

Event Time Altitude Azimuth Distance (km) Brightness Sun altitude
Exits shadow 23:22:46 15° 187° (S) 1,683 4.8 -14.1°
Maximum altitude 23:26:25 81° 102° (ESE) 639 3.0 -14.3°
Drops below altitude 10° 23:30:52 10° 16° (NNE) 2,013 6.3 -14.6°
Sets 23:33:07 0° 15° (NNE) 2,928 7.2 -14.7°
